Weather History for Kingman, AZ

Change the Weather History Date:

Wednesday, March 13, 2013

  Actual Average Record
Temperature  
Mean Temperature 61 °F 51 °F  
Max Temperature 81 °F 65 °F 84 °F (2007)
Min Temperature 41 °F 37 °F 22 °F (1956)
Degree Days  
Heating Degree Days 4 14  
Month to date heating degree days 168 196  
Since 1 July heating degree days 2635 2609  
Cooling Degree Days 0 0  
Month to date cooling degree days 0 0  
Year to date cooling degree days 0 0  
Growing Degree Days 11 (Base 50)    
Moisture  
Dew Point 29 °F    
Average Humidity 35    
Maximum Humidity 58    
Minimum Humidity 12    
Precipitation  
Precipitation 0.00 in 0.02 in 0.75 in (1937)
Month to date precipitation 0.14 0.41  
Year to date precipitation 1.13 2.57  
Sea Level Pressure  
Sea Level Pressure 30.07 in    
Wind  
Wind Speed 6 mph (NE)    
Max Wind Speed 14 mph    
Max Gust Speed 18 mph    
Visibility 10 miles    
Events      
T = Trace of Precipitation, MM = Missing Value Source: NWS Daily Summary

Daily Weather History Graph

Daily Weather History Graph

Search for Another Location

Airport:

Trip Planner

Search our weather history database for the weather conditions in past years. The results will help you decide how hot, cold, wet, or windy it might be!

Date:

Astronomy

Mar. 13, 2013 Rise Set
Actual Time 6:48 AM MST 6:41 PM MST
Civil Twilight 6:23 AM MST 7:07 PM MST
Nautical Twilight 5:54 AM MST 7:36 PM MST
Astronomical Twilight 5:24 AM MST 8:06 PM MST
Moon 7:36 AM MST (3/13) 8:55 PM MST (3/13)
Length of Visible Light 12h 43m
Length of Day
11h 53m
Waxing Crescent, 4% of the Moon is Illuminated
Mar 13
Waxing Crescent
Mar 19
First Quarter
Mar 27
Full
Apr 2
Last Quarter
Apr 10
New

Hourly Weather History & Observations

Time (MST) Temp. Windchill Dew Point Humidity Pressure Visibility Wind Dir Wind Speed Gust Speed Precip Events Conditions
12:51 AM 48.9 °F - 28.9 °F 46% 30.07 in 10.0 mi Calm Calm - N/A   Clear
1:51 AM 45.0 °F - 30.0 °F 56% 30.07 in 10.0 mi Calm Calm - N/A   Clear
2:51 AM 45.0 °F 42.6 °F 30.0 °F 56% 30.06 in 10.0 mi ESE 4.6 mph - N/A   Clear
3:51 AM 44.1 °F 42.5 °F 30.0 °F 58% 30.06 in 10.0 mi East 3.5 mph - N/A   Clear
4:51 AM 46.0 °F - 30.0 °F 54% 30.06 in 10.0 mi Calm Calm - N/A   Clear
5:51 AM 44.1 °F 42.5 °F 28.9 °F 55% 30.09 in 10.0 mi East 3.5 mph - N/A   Clear
6:51 AM 44.1 °F 41.5 °F 28.9 °F 55% 30.12 in 10.0 mi East 4.6 mph - N/A   Clear
7:51 AM 51.1 °F - 32.0 °F 48% 30.14 in 10.0 mi Calm Calm - N/A   Clear
8:51 AM 60.1 °F - 30.0 °F 32% 30.14 in 10.0 mi NE 3.5 mph - N/A   Clear
9:51 AM 64.9 °F - 30.0 °F 27% 30.14 in 10.0 mi NNE 9.2 mph - N/A   Clear
10:51 AM 71.1 °F - 28.9 °F 21% 30.13 in 10.0 mi North 9.2 mph - N/A   Clear
11:51 AM 73.9 °F - 28.9 °F 19% 30.10 in 10.0 mi North 9.2 mph - N/A   Clear
12:51 PM 77.0 °F - 27.0 °F 16% 30.07 in 10.0 mi NW 9.2 mph - N/A   Clear
1:51 PM 79.0 °F - 26.1 °F 14% 30.05 in 10.0 mi NNW 10.4 mph - N/A   Clear
2:51 PM 81.0 °F - 26.1 °F 13% 30.03 in 10.0 mi North 9.2 mph - N/A   Clear
3:51 PM 80.1 °F - 24.1 °F 13% 30.03 in 10.0 mi Variable 4.6 mph - N/A   Clear
4:51 PM 80.1 °F - 23.0 °F 12% 30.01 in 10.0 mi North 4.6 mph - N/A   Clear
5:51 PM 77.0 °F - 25.0 °F 15% 30.02 in 10.0 mi North 12.7 mph - N/A   Clear
6:51 PM 69.1 °F - 30.0 °F 23% 30.05 in 10.0 mi North 12.7 mph - N/A   Clear
7:51 PM 62.1 °F - 30.9 °F 31% 30.06 in 10.0 mi East 10.4 mph - N/A   Clear
8:51 PM 57.9 °F - 32.0 °F 37% 30.07 in 10.0 mi ESE 10.4 mph - N/A   Clear
9:51 PM 57.0 °F - 30.9 °F 37% 30.07 in 10.0 mi ESE 11.5 mph - N/A   Clear
10:51 PM 54.0 °F - 30.9 °F 41% 30.07 in 10.0 mi SE 5.8 mph - N/A   Clear
11:51 PM 53.1 °F - 30.9 °F 43% 30.06 in 10.0 mi Calm Calm - N/A   Clear